Tracking 29892 objects as of 21-Nov-2024
HD Live streaming from Space Station
objects crossing your sky now

NOAA 16 DEB

Track NOAA 16 DEB now!
10-day predictions


NORAD ID: 41531
Int'l Code: 2000-055NF
Perigee: 829.0 km
Apogee: 875.0 km
Inclination: 98.7 °
Period: 101.8 minutes
Semi major axis: 7223 km
RCS: Unknown
Launch date: September 21, 2000
Source: United States (US)
Launch site: AIR FORCE WESTERN TEST RANGE (AFWTR)

Note: This is SATELLITE DEBRIS
Your satellite tracking list
Your tracking list is empty




NASA's NSSDC Master Catalog

Two Line Element Set (TLE):
1 41531U 00055NF  24324.36295742  .00003947  00000-0  20798-2 0  9998
2 41531  98.6814 352.5694 0031839  69.0456 291.4120 14.14239299441798
Source of the keplerian elements: AFSPC